Temperature
12 12 13 13 13 13 14 14 14 14 14 14 14 13 13 13 13 13 12 12 12 13 13 13 13 13 14 14 14 14 14 14 13 13 13 12 12 12 12 12 12 12 12
11 11 11 12 12 12 13 13 13 13 14 13 13 13 13 12 12 12 12 12 12 12 12 12 13 13 13 13 13 14 14 13 13 12 12 12 12 12 12 12 12 12 12
10 10 10 10 11 11 12 12 12 13 13 13 12 12 12 12 12 12 12 12 12 12 12 12 12 13 13 13 13 13 13 12 12 12 11 11 11 11 11 11 11 11 11
9 9 9 9 10 10 10 11 11 12 12 12 12 12 12 12 12 12 12 12 12 12 12 12 12 12 12 12 12 12 12 12 11 11 11 11 11 11 11 11 11 11 11
9 9 9 9 9 9 10 10 10 11 11 12 12 12 12 12 12 12 11 11 11 11 11 11 11 11 11 11 11 11 11 11 11 11 11 11 11 11 11 11 11 10 10
9 9 9 9 9 9 9 9 10 10 11 11 11 12 11 12 12 12 11 11 11 11 11 11 11 11 11 11 11 11 11 11 11 11 11 11 11 11 11 11 11 11 11
9 9 9 9 9 9 9 9 9 9 10 10 11 11 11 11 12 12 11 11 11 11 11 11 11 10 10 11 11 11 10 10 11 11 11 11 11 11 11 11 11 11 11
9 9 9 9 9 9 9 9 8 9 9 10 10 11 11 11 11 11 11 10 11 11 11 11 11 10 10 10 10 10 10 10 10 10 10 10 10 10 11 11 11 11 10
9 9 9 9 9 9 9 9 8 8 8 9 9 10 10 11 11 11 11 11 10 10 10 10 10 10 10 10 10 10 10 10 10 11 11 10 10 10 10 11 11 11 11
8 8 8 8 8 8 8 8 8 8 8 8 9 9 10 10 11 11 11 11 11 10 10 10 10 10 10 10 10 10 10 10 10 10 10 10 10 10 10 11 12 12 11
8 8 8 7 7 7 7 8 8 8 8 8 8 9 9 10 10 11 11 11 11 11 11 10 10 10 10 10 10 10 10 10 10 10 9 9 9 9 10 10 10 11 11
7 7 7 7 7 8 8 8 8 8 8 8 8 8 9 9 10 10 10 10 11 11 11 11 10 10 10 10 10 10 10 10 10 10 10 10 10 9 9 9 9 9 9
6 6 6 6 7 7 7 8 8 8 8 8 8 8 8 9 9 10 10 10 10 11 11 11 11 10 10 10 10 10 10 10 11 11 10 10 9 9 8 8 8 8 8
6 6 6 6 6 6 7 7 8 8 8 8 7 7 8 8 9 10 10 10 10 10 10 10 10 10 10 10 10 10 10 10 11 10 10 9 9 9 9 9 9 9 8
5 5 5 5 6 6 7 7 8 8 8 7 7 7 8 8 9 10 10 10 10 10 10 10 10 10 10 9 10 10 10 10 10 10 9 9 9 9 9 9 9 10 10
5 5 5 5 5 6 6 7 7 7 7 7 7 7 7 8 8 9 10 10 10 10 10 10 10 11 11 10 10 10 10 10 10 10 10 10 10 9 9 9 10 10 10
4 4 4 5 5 5 6 7 7 7 7 7 7 7 7 7 8 9 10 10 10 10 11 11 11 11 11 11 11 11 10 10 10 10 10 10 10 10 10 10 10 10 10
4 4 4 5 5 5 6 6 6 7 7 6 6 7 7 7 8 9 10 10 10 10 11 11 11 11 11 11 11 11 10 9 10 10 10 10 10 10 10 10 10 9 10
4 4 4 5 5 5 5 6 6 6 6 6 6 7 7 8 8 9 9 9 10 10 12 12 11 11 11 11 11 11 10 10 10 10 10 9 10 10 10 10 9 8 9
4 4 4 5 5 5 6 6 6 6 6 6 6 6 7 7 8 8 9 10 10 11 12 12 12 11 11 11 11 11 10 10 9 10 10 10 10 10 10 10 9 9 9
4 4 4 4 5 6 6 6 6 6 6 6 6 7 7 8 8 9 9 10 11 11 12 12 12 11 11 11 11 11 10 10 10 10 10 10 10 10 10 10 9 10 9
4 5 5 5 5 6 6 6 6 6 6 7 7 7 8 8 9 9 10 11 11 12 12 12 12 11 11 11 11 11 11 11 10 10 10 10 10 10 10 10 10 10 9
5 5 5 5 6 6 6 6 6 6 7 7 7 7 8 9 10 10 11 11 12 12 12 11 12 12 11 11 11 11 11 11 11 10 10 10 10 10 10 10 9 9 9
5 5 5 6 6 6 6 6 7 7 7 7 8 8 9 10 10 11 11 11 11 11 11 11 12 12 11 11 11 11 11 11 11 10 10 10 10 10 10 10 10 10 10
6 6 6 6 6 7 7 7 7 7 7 8 8 9 9 10 10 11 11 11 11 11 11 11 11 12 11 11 11 11 11 11 10 10 10 10 10 10 10 10 10 10 10
6 6 6 6 7 7 7 7 7 8 8 8 9 9 10 10 11 11 11 11 11 11 11 11 11 11 11 11 11 11 11 11 10 10 10 10 10 10 10 10 10 10 10
Wind_Speed
12 12 12 11 11 11 11 12 12 12 12 12 12 11 12 12 12 11 12 12 12 11 10 9 9 9 7 6 6 5 5 6 5 3 4 4 6 7 7 8 10 10 13
12 13 13 13 13 13 13 13 13 13 13 13 12 11 11 11 10 10 11 10 10 9 8 7 6 5 5 4 3 3 3 4 7 9 5 4 6 7 8 9 8 10 12
13 12 13 13 14 14 15 15 14 13 14 14 13 12 10 9 9 8 8 7 7 7 6 5 4 3 2 2 3 5 6 7 8 10 7 4 5 6 8 9 10 9 11
11 11 12 12 12 13 15 15 15 14 14 14 13 12 10 8 7 6 5 5 4 4 4 4 4 4 5 6 7 8 9 10 10 9 9 7 6 7 7 8 9 8 9
12 12 12 12 12 13 13 14 15 15 14 14 14 12 10 8 5 4 3 1 1 3 5 6 7 10 10 8 8 8 8 8 8 8 9 8 7 7 7 8 10 10 9
15 16 15 14 14 13 13 14 15 15 14 13 13 13 11 8 5 1 3 2 2 4 5 7 8 11 14 14 14 12 8 8 8 7 8 9 9 8 7 8 9 9 8
18 18 17 16 16 15 14 14 14 14 13 12 13 13 12 8 9 5 3 3 4 5 5 6 8 9 9 10 13 13 12 10 7 7 9 9 10 9 8 8 7 8 8
19 19 18 18 18 16 15 15 14 13 12 11 12 12 12 11 12 9 6 6 6 6 6 8 9 9 8 9 12 12 11 10 8 9 10 10 10 8 9 10 11 11 9
20 19 19 18 18 17 17 15 13 12 12 11 11 12 12 12 14 12 10 8 8 8 8 8 9 10 9 9 12 13 12 11 14 16 14 13 13 10 4 7 8 9 9
20 20 19 18 18 18 17 16 13 11 12 11 11 11 12 12 15 15 13 9 10 9 8 8 9 11 10 8 12 13 13 12 12 12 11 11 11 9 7 5 5 7 9
20 19 19 19 18 18 18 16 14 12 11 10 11 9 11 12 16 17 14 9 11 11 10 9 9 10 9 5 8 11 12 12 11 11 11 10 10 8 9 9 8 7 7
21 20 20 19 18 17 16 15 14 12 11 10 9 8 8 10 14 16 15 10 5 10 10 10 10 12 9 5 7 12 11 9 9 9 9 9 9 9 10 11 11 11 11
21 21 20 19 18 17 17 16 14 12 10 9 7 6 6 8 11 15 14 9 4 7 8 12 15 15 13 9 13 13 10 7 8 8 9 9 9 10 10 10 11 10 10
21 20 18 18 17 17 15 14 13 11 10 8 6 6 5 7 10 13 13 10 11 11 12 14 14 11 9 12 12 10 7 7 7 8 9 9 9 8 8 8 8 8 9
20 18 17 16 16 15 15 13 13 11 8 7 7 6 6 8 10 16 17 15 14 14 15 13 13 12 12 12 11 9 8 8 8 9 9 9 9 8 7 6 6 6 7
17 16 14 13 13 13 13 13 12 11 8 10 10 9 7 8 8 15 16 16 17 20 17 14 14 13 13 12 11 11 10 9 9 9 9 9 9 8 8 7 6 6 6
16 15 12 12 12 12 12 11 9 9 11 11 12 13 11 10 13 16 17 19 20 19 14 14 13 12 12 12 11 11 10 10 9 9 9 9 8 8 7 7 6 6 6
15 14 13 12 11 11 11 11 9 8 7 6 8 12 13 14 16 18 20 19 15 15 13 13 13 12 12 11 11 11 11 11 9 9 9 8 8 8 7 7 6 6 6
11 9 10 10 10 10 10 9 8 8 6 4 4 6 12 15 17 20 21 17 18 16 13 13 13 12 12 11 11 11 11 11 10 9 9 8 8 8 7 7 7 4 3
8 10 10 8 8 9 9 8 8 7 5 5 6 8 11 12 13 15 16 16 16 16 13 13 13 13 12 11 11 11 11 11 11 9 9 8 8 7 8 8 8 7 5
6 7 10 9 9 8 8 7 7 6 5 6 8 13 17 16 16 18 18 16 15 15 14 13 13 13 12 11 11 12 12 11 11 10 10 9 8 8 7 7 7 6 6
4 4 5 6 7 6 6 6 6 5 6 7 9 13 17 16 17 18 17 15 15 14 14 13 13 13 12 12 12 12 12 11 11 10 10 9 8 8 7 7 7 6 5
3 3 4 5 5 5 6 5 5 6 6 8 12 14 15 15 17 18 17 15 14 13 13 13 13 13 13 12 12 12 12 12 11 11 10 10 9 8 7 7 7 6 6
2 3 4 4 4 5 5 5 5 6 7 11 14 15 16 16 17 18 17 14 13 13 13 13 13 15 16 13 11 11 11 11 12 12 12 10 10 9 8 8 8 8 7
2 3 3 4 4 4 3 4 5 6 9 12 14 15 16 16 16 16 15 14 14 13 14 14 12 14 17 16 14 11 11 11 8 9 12 10 10 10 9 9 8 8 9
3 3 3 3 3 2 2 3 4 8 10 12 14 15 16 15 15 15 14 14 14 13 13 13 14 14 16 16 15 12 14 14 11 7 9 11 11 11 11 10 11 11 11
Wind_Direction
354 347 340 333 325 314 298 287 277 270 266 265 270 278 285 293 298 299 300 303 300 297 294 286 281 273 263 255 243 231 218 201 168 117 95 98 99 101 100 98 98 94 89
342 340 337 333 331 324 316 305 291 276 266 262 264 270 279 289 295 298 303 310 312 311 308 305 305 300 276 251 218 184 161 150 137 126 110 99 96 102 101 96 95 93 92
328 327 327 326 328 326 320 313 302 286 271 264 259 262 271 281 287 293 301 310 316 319 319 327 334 360 37 79 107 111 110 113 116 121 119 106 103 111 106 102 101 104 99
308 307 308 310 315 317 318 316 309 294 276 262 256 255 260 265 274 287 295 309 329 348 1 13 24 54 74 86 91 99 107 112 118 122 123 123 121 124 124 123 115 108 106
290 290 290 291 297 301 307 311 308 298 282 264 254 249 246 247 250 270 276 305 17 55 54 50 60 75 73 79 94 103 112 117 122 126 128 129 130 139 136 131 120 117 111
289 289 289 288 288 292 297 303 306 302 291 275 254 244 238 233 127 129 277 149 111 97 88 83 82 82 82 80 80 77 82 113 125 130 130 128 130 129 128 135 138 132 118
289 288 287 285 285 287 292 298 304 305 298 286 264 246 233 198 149 171 229 172 135 115 107 102 97 94 95 102 95 88 76 71 94 113 119 124 127 131 137 126 108 106 102
287 285 285 284 282 282 284 289 296 302 300 292 276 253 232 194 164 174 192 175 137 127 120 115 113 111 111 115 113 104 94 73 79 99 103 101 105 108 108 110 114 114 109
285 285 284 284 283 280 279 282 288 294 297 293 283 262 234 193 170 175 194 170 149 139 135 130 128 126 128 128 119 112 104 92 71 73 77 82 68 56 75 135 138 128 114
284 283 283 282 280 277 276 278 279 282 287 291 284 268 242 205 175 178 198 179 157 150 140 137 137 139 149 156 134 127 121 117 114 108 104 111 103 85 48 70 118 126 123
282 281 279 277 276 273 270 269 269 273 282 287 285 271 250 215 176 181 198 196 167 163 158 158 145 139 157 172 158 138 132 133 129 126 121 116 112 103 88 68 50 66 92
280 277 275 273 272 271 265 262 261 266 273 278 280 272 252 218 182 184 191 218 208 169 164 156 142 145 149 156 141 128 145 161 141 133 125 119 112 101 89 81 72 70 72
280 276 274 271 268 266 264 260 255 253 261 272 277 262 244 218 179 169 176 185 196 168 137 115 131 140 138 125 128 145 172 164 141 135 126 117 107 106 110 107 101 99 94
277 274 271 268 265 260 256 254 250 249 253 264 269 257 231 223 186 173 172 163 142 132 123 121 131 149 141 126 148 173 183 150 143 134 127 125 129 141 142 137 136 134 121
274 270 267 263 263 262 255 249 249 247 249 259 266 255 222 216 200 176 170 171 169 151 145 147 150 152 153 157 164 163 152 148 145 138 140 144 144 136 125 116 119 124 119
269 265 261 257 257 257 253 246 224 230 201 212 232 234 229 223 199 173 165 152 141 147 158 159 161 162 161 160 159 158 158 154 150 148 149 149 145 138 135 136 133 120 111
264 261 256 253 251 252 250 246 238 219 208 213 220 218 215 198 179 165 151 142 146 161 170 162 164 162 159 158 158 158 154 147 151 152 149 146 144 143 141 137 130 124 116
261 255 249 247 246 247 247 245 239 236 229 230 208 198 190 181 169 154 142 143 158 179 176 165 165 162 160 159 157 152 146 150 159 152 149 150 151 148 144 142 133 128 125
257 247 242 242 242 242 241 240 235 233 236 232 183 169 169 160 154 152 155 168 172 183 178 167 167 165 162 160 153 151 153 157 157 155 151 154 154 152 148 139 122 118 140
254 240 240 242 239 239 237 234 230 227 228 218 187 163 151 150 157 165 177 181 178 183 178 170 169 167 165 161 158 159 157 155 158 163 154 159 158 153 149 150 148 156 146
250 228 218 232 236 236 234 230 227 223 218 197 182 163 161 165 166 172 182 185 181 181 179 173 169 170 168 166 166 167 164 163 168 165 157 162 161 157 156 156 156 156 144
247 231 222 229 233 234 232 226 222 220 205 188 166 157 169 171 169 175 184 185 182 179 176 175 174 174 174 174 172 172 172 171 171 169 165 165 164 167 167 167 169 167 163
247 235 234 232 233 225 229 226 224 211 192 175 161 161 173 174 172 177 183 183 179 175 174 178 179 177 177 178 178 180 180 178 176 174 175 175 177 180 182 181 184 190 194
270 250 241 233 230 231 228 223 204 191 180 163 162 167 173 173 173 178 181 179 174 173 175 181 186 181 177 179 183 187 185 178 178 180 187 190 191 193 195 196 206 212 216
276 265 255 251 243 234 213 190 186 178 160 160 162 168 172 172 173 175 178 177 174 176 179 182 187 185 182 188 191 190 151 144 173 187 186 203 209 210 215 218 224 230 235
301 289 271 259 255 233 178 174 174 151 148 156 163 168 169 169 170 172 176 176 175 176 180 185 189 188 185 193 196 172 146 157 176 209 214 207 214 221 225 234 239 241 245
Height
1492 1489 1486 1484 1481 1479 1477 1475 1473 1471 1469 1467 1465 1463 1460 1457 1453 1449 1444 1440 1435 1431 1427 1424 1421 1420 1419 1419 1420 1422 1423 1426 1429 1432 1435 1437 1439 1441 1443 1444 1446 1447 1448
1488 1485 1482 1479 1476 1473 1471 1468 1466 1464 1462 1461 1459 1457 1455 1452 1449 1445 1440 1436 1432 1427 1424 1421 1418 1416 1415 1415 1417 1418 1420 1423 1426 1429 1433 1436 1439 1441 1443 1445 1447 1449 1450
1483 1479 1477 1474 1470 1466 1464 1462 1459 1457 1455 1455 1454 1452 1450 1447 1444 1441 1437 1433 1429 1425 1422 1419 1417 1415 1414 1414 1415 1416 1419 1422 1425 1428 1432 1436 1439 1442 1444 1447 1449 1451 1451
1476 1473 1469 1467 1463 1460 1457 1455 1452 1450 1449 1448 1447 1446 1445 1443 1440 1438 1435 1431 1428 1425 1422 1419 1417 1415 1415 1415 1415 1417 1420 1423 1426 1430 1434 1438 1441 1444 1447 1449 1451 1453 1454
1470 1467 1463 1460 1457 1454 1451 1449 1446 1444 1442 1441 1440 1440 1439 1438 1437 1435 1432 1430 1427 1425 1423 1421 1419 1418 1418 1418 1419 1421 1423 1426 1429 1433 1436 1440 1443 1446 1449 1452 1453 1455 1457
1465 1461 1458 1455 1453 1450 1447 1443 1440 1438 1435 1434 1433 1433 1433 1434 1432 1431 1430 1429 1427 1425 1424 1423 1422 1421 1422 1423 1424 1426 1428 1431 1434 1436 1439 1442 1445 1448 1451 1454 1456 1457 1459
1458 1455 1452 1449 1446 1444 1442 1438 1435 1432 1429 1426 1426 1426 1427 1427 1427 1428 1428 1428 1427 1426 1425 1425 1424 1425 1426 1427 1429 1431 1433 1436 1439 1440 1442 1445 1448 1450 1453 1455 1457 1458 1460
1450 1447 1444 1442 1439 1437 1435 1432 1429 1426 1423 1420 1419 1419 1420 1422 1423 1424 1425 1426 1427 1427 1427 1427 1427 1428 1430 1432 1434 1436 1438 1440 1443 1444 1445 1448 1450 1453 1455 1456 1458 1459 1461
1442 1439 1436 1434 1431 1429 1428 1426 1423 1420 1417 1414 1412 1412 1414 1416 1418 1420 1423 1425 1426 1427 1428 1430 1431 1432 1434 1436 1438 1440 1442 1444 1446 1447 1449 1450 1452 1454 1457 1460 1461 1462 1464
1433 1430 1428 1425 1423 1421 1419 1418 1416 1414 1411 1409 1406 1405 1407 1410 1413 1416 1420 1423 1425 1427 1429 1431 1433 1435 1437 1439 1441 1443 1445 1448 1449 1451 1452 1454 1455 1457 1458 1460 1462 1463 1464
1423 1420 1418 1416 1414 1412 1411 1410 1408 1407 1405 1403 1400 1399 1400 1404 1407 1412 1416 1420 1424 1426 1429 1432 1434 1436 1439 1442 1444 1446 1448 1450 1453 1454 1455 1457 1458 1459 1460 1460 1461 1463 1465
1413 1410 1408 1406 1405 1404 1402 1401 1401 1400 1399 1397 1395 1393 1394 1397 1402 1408 1413 1417 1422 1425 1428 1431 1433 1437 1440 1443 1446 1448 1450 1452 1455 1456 1458 1459 1461 1461 1462 1462 1462 1463 1464
1402 1399 1397 1396 1395 1394 1394 1393 1393 1393 1392 1391 1389 1388 1388 1391 1397 1403 1409 1415 1419 1423 1427 1429 1433 1437 1441 1444 1446 1449 1451 1454 1456 1457 1459 1461 1462 1463 1464 1464 1465 1466 1467
1390 1387 1386 1385 1384 1384 1384 1384 1385 1385 1385 1385 1384 1383 1384 1387 1392 1399 1405 1411 1417 1421 1424 1428 1433 1437 1441 1444 1446 1450 1453 1455 1456 1458 1460 1461 1463 1465 1467 1468 1469 1470 1471
1377 1376 1375 1375 1374 1374 1375 1375 1376 1377 1378 1379 1379 1378 1379 1382 1388 1396 1402 1409 1415 1419 1423 1428 1433 1437 1441 1444 1447 1450 1452 1454 1456 1458 1460 1462 1464 1466 1468 1469 1470 1471 1472
1365 1365 1364 1364 1365 1365 1366 1367 1367 1370 1370 1371 1371 1372 1375 1379 1385 1393 1401 1408 1413 1417 1423 1428 1433 1437 1440 1443 1446 1449 1452 1454 1456 1459 1461 1463 1465 1467 1468 1470 1471 1472 1473
1354 1353 1354 1355 1356 1357 1358 1359 1361 1362 1363 1363 1364 1366 1370 1375 1381 1391 1399 1406 1412 1417 1423 1427 1431 1435 1439 1442 1445 1448 1451 1453 1456 1459 1461 1463 1465 1467 1469 1470 1471 1472 1473
1343 1343 1344 1346 1347 1349 1351 1352 1354 1355 1356 1357 1358 1361 1366 1372 1380 1389 1398 1405 1411 1417 1422 1426 1430 1434 1438 1441 1444 1447 1450 1453 1456 1459 1461 1463 1465 1467 1469 1470 1471 1473 1474
1334 1335 1337 1339 1341 1342 1344 1346 1348 1349 1351 1352 1353 1357 1363 1370 1379 1388 1396 1404 1410 1415 1420 1425 1429 1433 1437 1440 1443 1446 1449 1452 1455 1458 1461 1463 1465 1467 1469 1470 1471 1472 1474
1328 1330 1332 1334 1336 1337 1339 1341 1343 1344 1345 1347 1350 1353 1359 1367 1375 1385 1394 1402 1408 1414 1418 1423 1427 1431 1435 1439 1442 1446 1449 1452 1455 1458 1460 1463 1465 1467 1468 1470 1471 1473 1474
1324 1325 1327 1330 1331 1333 1335 1337 1338 1339 1341 1344 1347 1352 1359 1366 1375 1383 1392 1400 1406 1411 1416 1421 1425 1430 1434 1438 1441 1445 1448 1451 1454 1457 1460 1462 1464 1466 1468 1470 1471 1472 1473
1322 1324 1325 1327 1329 1330 1332 1333 1334 1336 1338 1341 1345 1352 1360 1368 1376 1384 1392 1398 1404 1410 1415 1419 1424 1428 1432 1436 1440 1443 1447 1450 1453 1456 1459 1461 1464 1466 1468 1469 1471 1472 1473
1322 1323 1324 1325 1327 1328 1329 1330 1331 1333 1336 1340 1345 1352 1360 1368 1376 1384 1391 1397 1403 1408 1413 1418 1422 1427 1431 1435 1438 1442 1445 1448 1452 1455 1458 1460 1463 1465 1467 1468 1469 1471 1471
1323 1323 1324 1324 1325 1326 1327 1328 1329 1331 1334 1339 1346 1353 1361 1368 1376 1383 1390 1396 1402 1407 1411 1416 1421 1425 1429 1433 1437 1440 1444 1447 1450 1453 1456 1459 1461 1463 1465 1466 1467 1468 1469
1323 1323 1323 1323 1323 1323 1324 1326 1328 1330 1334 1340 1347 1354 1362 1369 1376 1383 1390 1395 1400 1405 1410 1414 1419 1423 1427 1431 1435 1439 1441 1445 1448 1452 1454 1457 1459 1461 1463 1464 1465 1465 1466
1323 1322 1322 1322 1322 1323 1324 1326 1328 1331 1336 1342 1349 1356 1363 1370 1376 1383 1389 1394 1399 1404 1408 1413 1417 1421 1425 1429 1433 1437 1439 1442 1446 1449 1452 1455 1457 1458 1460 1461 1461 1462 1462